Flag for Germany Weather past 2 weeks in Bad Nauheim, Hesse, Germany

Now
93 °F

Sunny.


Feels Like: 91 °F
Forecast: 72 / 93 °F
Wind: 5 mph from Southeast

Location: Giessen

Current Time: Jul 2, 2015 at 2:50:06 PM

Latest Report: Jul 2, 2015 at 2:00 PM


Visibility: 17 mi

Pressure: 30.09 "Hg

Humidity: 30%

Dew point: 57 °F

Location of Bad NauheimLocation

Historic Weather in Bad Nauheim — Graph

°F

Bad Nauheim temperature yesterday

Maximum temperature yesterday: 90 °F (at 4:00 PM)
Minimum temperature yesterday: 58 °F (at 6:00 AM)
Average temperature yesterday: 75 °F

Past Weeks' High & Low Weather Summary

 TemperatureHumidityPressure
High90 °F (Jul 2, 1:00 PM)97% (Jun 22, 11:00 PM)30.24 "Hg (Jun 22, 11:00 PM)
Low46 °F (Jun 25, 6:00 AM)27% (Jun 29, 6:00 PM)29.69 "Hg (Jun 23, 1:00 AM)
Average62 °F67%30.07 "Hg
* Reported Jun 17 1:00 PM — Jul 2 1:00 PM, Bad Nauheim, Weather by CustomWeather, © 2015

Note: Actual official high and low records may vary slightly from our data, if they occured in-between our weather recording intervals... More about our weather records

Advertising

Bad Nauheim weather history for previous 24 hours

 ConditionsComfort  
Time TempWeatherWind HumidityBarometerVisibility
1:00 PM
Thu, Jul 2
90 °FSunny.6 mph32%30.10 "Hg19 mi
12:00 PM87 °FSunny.6 mph36%30.10 "Hg19 mi
11:00 AM84 °FSunny.6 mph41%30.11 "Hg17 mi
10:00 AM81 °FSunny.3 mph45%30.11 "Hg17 mi
9:00 AM76 °FSunny.5 mph54%30.12 "Hg17 mi
8:00 AM72 °FSunny.2 mph60%30.13 "Hg25 mi
7:00 AM66 °FSunny.2 mph71%30.13 "Hg19 mi
6:00 AM63 °FSunny.2 mph77%30.13 "Hg16 mi
5:00 AM64 °FClear.3 mph76%30.12 "Hg19 mi
4:00 AM65 °FClear.3 mph75%30.12 "Hg19 mi
3:00 AM68 °FClear.2 mph64%30.11 "Hg25 mi
2:00 AM70 °FPassing clouds.2 mph62%30.11 "Hg25 mi
1:00 AM72 °FClear.3 mph56%30.10 "Hg28 mi
12:00 AM74 °FClear.5 mph56%30.09 "Hg25 mi
11:00 PM
Wed, Jul 1
74 °FPassing clouds.3 mph59%30.08 "Hg14 mi
10:00 PM79 °FClear.2 mph47%30.06 "Hg13 mi
9:00 PM84 °FSunny.2 mph37%30.04 "Hg25 mi
8:00 PM87 °FSunny.3 mph33%30.03 "Hg25 mi
7:00 PM89 °FScattered clouds.3 mph30%30.03 "Hg25 mi
6:00 PM90 °FPartly sunny.3 mph29%30.03 "Hg25 mi
5:00 PM89 °FSunny.5 mph29%30.04 "Hg19 mi
4:00 PM90 °FPassing clouds.5 mph28%30.05 "Hg25 mi
3:00 PM87 °FPassing clouds.3 mph31%30.06 "Hg19 mi
2:00 PM86 °FSunny.5 mph31%30.08 "Hg25 mi
Weather by CustomWeather, © 2015

See weather overviewHow to use our weather pages